sat.trackr.live / text

‹ back to catalog

BEIDOU-3 M14 (C33)

NORAD 43623 · 2018-072B

PAYLOAD ACTIVE UNKNOWN

§ Identity

Operator
Country
PRC
Launch date
2018-09-19
Launch site
XICLF
Launch vehicle
Mass (kg)
RCS (m²)

Purposes: earth_obs, nav

External: N2YO · Heavens-Above · Gunter

§ Orbital elements

Epoch: 2026-09-19T21:43:44.711040Z

Period
773.23 min
Inclination
56.7136°
Eccentricity
0.0003529
Mean motion
1.86231218 rev/d
Perigee alt
21,518.2 km
Apogee alt
21,537.9 km
Semi-major
27,906.2 km
B*
0.0000e+0
RAAN
59.5333°
Arg perigee
24.4495°
Mean anomaly
335.5877°
Rev number
5,441

§ Raw data

BEIDOU-3 M14 (C33)1 43623U 18072B   26262.90537860 -.00000009  00000+0  00000+0 0  99902 43623  56.7136  59.5333 0003529  24.4495 335.5877  1.86231218 54417

JSON: /api/v1/satellites/43623 · /tle

For live sub-satellite position, see the globe view (requires WebGL).

§ Visibility from observer

Set your observer location to see the next 7 days of passes ≥ 10°. The values pass through the URL so the page stays shareable.

No JS? Fill the form by hand. The geolocation button needs JavaScript.